[Iaude] MPEC O109: 2024 NE4 [a=1.46,e=0.24,i=13.6,H=22.9]
    mpec at cfa.harvard.edu 
    mpec at cfa.harvard.edu
       
    Wed Jul 31 06:59:46 EDT 2024
    
    
  
M.P.E.C. 2024-O109                                Issued 2024 July 31, 10:58 UT
     The Minor Planet Electronic Circulars contain information on unusual
         minor planets, routine data on comets and natural satellites,
         and occasional editorial announcements.  They are published
    on behalf of Division F of the International Astronomical Union by the
          Minor Planet Center, Smithsonian Astrophysical Observatory,
                          Cambridge, MA 02138, U.S.A.
			  
             Prepared using the Tamkin Foundation Computer Network
                              MPC at CFA.HARVARD.EDU
            URL https://www.minorplanetcenter.net/    ISSN 1523-6714
                                    2024 NE4                                    
Observations:
     K24N04E &C2024 06 03.25406418 05 49.46 +23 35 17.2                WEO109W84
     K24N04E &C2024 06 03.25548618 05 49.42 +23 35 18.8                WEO109W84
     K24N04E  C2024 06 11.55025118 03 20.206+25 27 30.82         22.26GVEO109F51
     K24N04E  C2024 06 11.56316618 03 19.742+25 27 38.65         21.54GVEO109F51
     K24N04E  C2024 06 11.57608118 03 19.338+25 27 46.61         22.61GVEO109F51
     K24N04E  C2024 06 15.50025218 01 25.874+26 03 13.98         21.75GVEO109F51
     K24N04E  C2024 06 15.50769718 01 25.534+26 03 17.04         21.98GVEO109F51
     K24N04E  C2024 06 15.51508418 01 25.198+26 03 19.90         23.55GVEO109F51
     K24N04E  C2024 06 15.52233818 01 24.893+26 03 23.13         23.48GVEO109F51
     K24N04E  C2024 06 27.45193817 53 44.476+26 19 57.47         21.64GVEO109F51
     K24N04E  C2024 06 27.46339217 53 43.837+26 19 53.23         21.38GVEO109F51
     K24N04E* C2024 07 02.46272717 50 07.468+25 36 58.95         21.78wXEO109F51
     K24N04E  C2024 07 02.47424017 50 06.828+25 36 50.26         21.14wXEO109F51
     K24N04E  C2024 07 02.48569017 50 06.200+25 36 41.31         21.69wXEO109F51
     K24N04E  C2024 07 29.36321517 42 17.718+09 41 26.01         20.93wXEO109F51
     K24N04E  C2024 07 29.37485617 42 17.809+09 40 41.62         21.32wXEO109F51
     K24N04E  C2024 07 29.38645317 42 17.901+09 39 57.85         21.82wXEO109F51
     K24N04E  C2024 07 29.39814617 42 17.999+09 39 13.17         21.75wXEO109F51
     K24N04E  C2024 07 29.48509317 42 19.088+09 33 41.46         22.07GVEO109F51
     K24N04E  C2024 07 29.48574617 42 19.118+09 33 38.96         21.85GVEO109F51
     K24N04E !C2024 07 30.22391 17 42 42.22 +08 46 15.4          19.8 GVEO109673
     K24N04E !C2024 07 30.22646 17 42 42.28 +08 46 05.4                VEO109673
     K24N04E !C2024 07 31.24654 17 43 14.81 +07 38 45.1          19.9 GVEO109673
     K24N04E !C2024 07 31.25176 17 43 14.89 +07 38 23.3                VEO109673
Observer details:
673 Table Mountain Observatory, Wrightwood.  Observer J. Pittichova.  1.0-m
    f/15 reflector + CCD.
F51 Pan-STARRS 1, Haleakala.  Observers J. Herman, T. Lowe, P. Minguez, A.
    Schultz, I. Smith.  Measurers K. Chambers, T. de Boer, J. Fairlamb, H.
    Gao, M. Huber, C.-C. Lin, E. Magnier, Y. Ramanjooloo, R. Wainscoat, R.
    Weryk.  1.8-m Ritchey-Chretien + CCD.
W84 Cerro Tololo-DECam.  Observer G. Medina.  Measurer S. Deen.  4.0-m
    reflector + CCD.
Orbital elements:
2024 NE4                                                 Earth MOID = 0.0982 AU
Epoch 2024 Oct. 17.0 TT = JDT 2460600.5                 Veres                   
M  26.37094              (2000.0)            P               Q                  
n   0.56096046     Peri.  188.29639     +0.87081117     +0.47050115             
a   1.4560665      Node   142.54278     -0.43652987     +0.87337458             
e   0.2386575      Incl.   13.55446     -0.22611852     +0.12587893             
P   1.76           H   22.94          G   0.15           U   5                  
Residuals in seconds of arc
240603 W84  0.2+  0.1+    240615 F51  0.2-  0.0     240729 F51  0.0   0.1+
240603 W84  0.1+  0.3+    240627 F51  0.1+  0.1+    240729 F51  0.0   0.1-
240611 F51  0.1+  0.0     240627 F51  0.2+  0.3-    240729 F51  0.1-  0.1+
240611 F51  0.0   0.0     240702 F51  0.1-  0.0     240729 F51  0.2+  0.1+
240611 F51  0.6+  0.2+    240702 F51  0.0   0.1+    240730 673  0.5-  0.1-
240615 F51  0.2+  0.0     240702 F51  0.1+  0.1-    240730 673  0.1-  0.1-
240615 F51  0.0   0.0     240729 F51  0.0   0.1+    240731 673  0.2+  0.5+
240615 F51  0.3-  0.2-    240729 F51  0.0   0.1-    240731 673  0.1-  0.2-
Ephemeris:
2024 NE4                 a,e,i = 1.46, 0.24, 14                  q = 1.1086
Date    TT    R. A. (2000) Decl.     Delta      r    Elong.  Phase     V
2024 07 01    17 51 11.5 +25 53 01   0.2670  1.2045   129.6    40.6    22.1
...
2024 07 16    17 42 17.6 +20 27 55   0.2176  1.1655   129.0    42.7    21.6
...
2024 07 24    17 41 01.1 +14 46 46   0.1949  1.1482   128.9    43.5    21.4
...
2024 07 30    17 42 35.9 +09 01 07   0.1804  1.1370   128.8    44.1    21.2
2024 07 31    17 43 07.0 +07 55 39   0.1782  1.1353   128.8    44.2    21.2
2024 08 01    17 43 43.0 +06 47 57   0.1761  1.1336   128.8    44.3    21.1
...
2024 08 07    17 49 10.6 -00 43 28   0.1657  1.1248   128.5    44.9    21.0
...
2024 08 15    18 02 13.2 -12 22 02   0.1580  1.1158   127.4    46.2    20.9
...
2024 08 30    18 48 25.8 -34 31 59   0.1668  1.1086   122.6    50.1    21.1
M. P. C. Staff               (C) Copyright 2024 MPC           M.P.E.C. 2024-O109
    
    
More information about the Iaude
mailing list